QPF
0.01 0.01 0.00 0.00 0.00 0.00 0.00 0.00 0.01 0.01 0.01 0.02 0.03 0.02 0.00 0.00 0.00 0.00 0.00 0.00 0.00 0.00 0.00 0.00 0.00 0.00 0.00 0.00 0.00 0.00 0.00 0.00 0.00 0.00 0.00 0.00 0.00 0.00 0.00 0.00 0.00 0.00 0.00 0.00 0.00
0.00 0.01 0.01 0.00 0.00 0.00 0.02 0.03 0.01 0.01 0.03 0.05 0.05 0.03 0.00 0.00 0.00 0.00 0.00 0.00 0.00 0.00 0.00 0.00 0.00 0.00 0.00 0.00 0.00 0.00 0.00 0.00 0.00 0.00 0.00 0.00 0.00 0.00 0.00 0.00 0.00 0.00 0.00 0.00 0.00
0.00 0.00 0.00 0.01 0.03 0.04 0.03 0.02 0.01 0.02 0.04 0.05 0.06 0.04 0.01 0.00 0.00 0.00 0.00 0.00 0.00 0.00 0.00 0.00 0.00 0.00 0.00 0.00 0.00 0.00 0.00 0.00 0.00 0.00 0.00 0.00 0.00 0.00 0.00 0.00 0.00 0.00 0.00 0.00 0.00
0.00 0.00 0.00 0.00 0.00 0.02 0.01 0.02 0.01 0.01 0.03 0.02 0.06 0.06 0.03 0.00 0.00 0.00 0.00 0.00 0.00 0.00 0.00 0.00 0.00 0.00 0.00 0.00 0.00 0.00 0.00 0.00 0.00 0.00 0.00 0.00 0.00 0.00 0.00 0.00 0.00 0.00 0.00 0.00 0.00
0.00 0.00 0.00 0.00 0.01 0.03 0.01 0.01 0.02 0.03 0.04 0.02 0.02 0.05 0.02 0.00 0.00 0.00 0.00 0.00 0.00 0.00 0.00 0.00 0.00 0.00 0.00 0.00 0.00 0.00 0.00 0.00 0.00 0.00 0.00 0.00 0.00 0.00 0.00 0.00 0.00 0.00 0.00 0.00 0.00
0.00 0.00 0.00 0.00 0.00 0.01 0.01 0.01 0.02 0.04 0.05 0.06 0.04 0.04 0.01 0.00 0.00 0.00 0.00 0.00 0.00 0.00 0.00 0.00 0.00 0.00 0.00 0.00 0.00 0.00 0.00 0.00 0.00 0.00 0.00 0.00 0.00 0.00 0.00 0.00 0.00 0.00 0.00 0.00 0.00
0.00 0.00 0.00 0.00 0.00 0.00 0.02 0.03 0.02 0.03 0.05 0.06 0.07 0.07 0.02 0.00 0.00 0.00 0.00 0.00 0.00 0.00 0.00 0.00 0.00 0.00 0.00 0.00 0.00 0.00 0.00 0.00 0.00 0.00 0.00 0.00 0.00 0.00 0.00 0.00 0.00 0.00 0.00 0.00 0.00
0.00 0.00 0.00 0.00 0.00 0.00 0.01 0.03 0.01 0.01 0.02 0.06 0.08 0.05 0.02 0.01 0.00 0.00 0.00 0.00 0.00 0.00 0.00 0.00 0.00 0.00 0.00 0.00 0.00 0.00 0.00 0.00 0.00 0.00 0.00 0.00 0.00 0.00 0.00 0.00 0.00 0.00 0.00 0.00 0.00
0.00 0.00 0.00 0.00 0.00 0.00 0.00 0.00 0.00 0.00 0.01 0.05 0.04 0.03 0.02 0.01 0.00 0.00 0.00 0.00 0.00 0.00 0.00 0.00 0.00 0.00 0.00 0.00 0.00 0.00 0.00 0.00 0.00 0.00 0.00 0.00 0.00 0.00 0.00 0.00 0.00 0.00 0.00 0.00 0.00
0.00 0.00 0.00 0.00 0.00 0.00 0.00 0.00 0.00 0.00 0.01 0.04 0.02 0.01 0.01 0.00 0.00 0.00 0.00 0.00 0.00 0.00 0.00 0.00 0.00 0.00 0.00 0.00 0.00 0.00 0.00 0.00 0.00 0.00 0.00 0.00 0.00 0.00 0.00 0.00 0.00 0.00 0.00 0.00 0.00
0.00 0.00 0.00 0.00 0.00 0.00 0.00 0.00 0.00 0.00 0.01 0.02 0.01 0.01 0.00 0.00 0.00 0.00 0.00 0.00 0.00 0.00 0.00 0.00 0.00 0.00 0.00 0.00 0.00 0.00 0.00 0.00 0.00 0.00 0.00 0.00 0.00 0.00 0.00 0.00 0.00 0.00 0.00 0.00 0.00
0.00 0.00 0.00 0.00 0.00 0.00 0.00 0.00 0.02 0.01 0.00 0.00 0.01 0.01 0.00 0.01 0.00 0.00 0.00 0.00 0.00 0.00 0.00 0.00 0.00 0.00 0.00 0.00 0.00 0.00 0.00 0.00 0.00 0.00 0.00 0.00 0.00 0.00 0.00 0.00 0.00 0.00 0.00 0.00 0.00
0.00 0.00 0.00 0.00 0.00 0.00 0.00 0.00 0.01 0.00 0.00 0.00 0.00 0.00 0.00 0.01 0.01 0.00 0.00 0.00 0.00 0.00 0.00 0.00 0.00 0.00 0.00 0.00 0.00 0.00 0.00 0.00 0.00 0.00 0.00 0.00 0.00 0.00 0.00 0.00 0.00 0.00 0.00 0.00 0.00
0.00 0.00 0.00 0.00 0.00 0.00 0.00 0.00 0.00 0.00 0.00 0.00 0.01 0.00 0.00 0.01 0.01 0.00 0.00 0.00 0.00 0.00 0.00 0.00 0.00 0.00 0.00 0.00 0.00 0.00 0.00 0.00 0.00 0.00 0.00 0.00 0.00 0.00 0.00 0.00 0.00 0.00 0.00 0.00 0.00
0.00 0.00 0.00 0.00 0.00 0.00 0.00 0.00 0.00 0.00 0.00 0.00 0.01 0.02 0.01 0.00 0.00 0.01 0.00 0.00 0.00 0.00 0.00 0.00 0.00 0.00 0.00 0.00 0.00 0.00 0.00 0.00 0.00 0.00 0.00 0.00 0.00 0.00 0.00 0.00 0.00 0.00 0.00 0.00 0.00
0.00 0.00 0.00 0.00 0.00 0.00 0.00 0.00 0.00 0.00 0.00 0.01 0.02 0.03 0.02 0.01 0.01 0.02 0.01 0.01 0.00 0.00 0.00 0.00 0.00 0.00 0.00 0.00 0.00 0.00 0.00 0.00 0.00 0.00 0.00 0.00 0.00 0.00 0.00 0.00 0.00 0.00 0.00 0.00 0.00
0.00 0.00 0.00 0.00 0.00 0.00 0.00 0.00 0.00 0.00 0.00 0.01 0.01 0.02 0.01 0.01 0.02 0.03 0.02 0.01 0.01 0.00 0.00 0.00 0.00 0.00 0.00 0.00 0.00 0.00 0.00 0.00 0.00 0.00 0.00 0.00 0.00 0.00 0.00 0.00 0.00 0.00 0.00 0.00 0.00
0.00 0.00 0.00 0.00 0.00 0.00 0.00 0.00 0.00 0.00 0.00 0.00 0.00 0.00 0.01 0.01 0.01 0.03 0.02 0.01 0.00 0.00 0.00 0.00 0.00 0.00 0.00 0.00 0.00 0.00 0.00 0.00 0.00 0.00 0.00 0.00 0.00 0.00 0.00 0.00 0.00 0.00 0.00 0.00 0.00
0.00 0.00 0.00 0.00 0.00 0.00 0.00 0.00 0.00 0.00 0.00 0.00 0.00 0.00 0.00 0.01 0.01 0.02 0.02 0.00 0.00 0.00 0.00 0.00 0.00 0.00 0.00 0.00 0.00 0.00 0.00 0.00 0.00 0.00 0.00 0.00 0.00 0.00 0.00 0.00 0.00 0.00 0.00 0.00 0.00
0.00 0.00 0.00 0.00 0.00 0.00 0.00 0.00 0.00 0.00 0.00 0.00 0.00 0.00 0.01 0.00 0.01 0.02 0.00 0.00 0.00 0.00 0.00 0.00 0.00 0.00 0.00 0.00 0.00 0.00 0.00 0.00 0.00 0.00 0.00 0.00 0.00 0.00 0.00 0.00 0.00 0.00 0.00 0.00 0.00
0.00 0.00 0.00 0.00 0.00 0.00 0.00 0.00 0.00 0.00 0.00 0.00 0.00 0.01 0.00 0.00 0.00 0.01 0.01 0.00 0.00 0.00 0.01 0.00 0.00 0.00 0.00 0.00 0.00 0.00 0.00 0.00 0.00 0.00 0.00 0.00 0.00 0.00 0.00 0.00 0.00 0.00 0.00 0.00 0.00
0.00 0.00 0.00 0.00 0.00 0.00 0.00 0.00 0.00 0.00 0.00 0.00 0.00 0.00 0.00 0.00 0.00 0.00 0.00 0.00 0.00 0.00 0.01 0.00 0.00 0.00 0.00 0.00 0.00 0.00 0.00 0.00 0.00 0.00 0.00 0.00 0.00 0.00 0.00 0.00 0.00 0.00 0.00 0.00 0.00
0.00 0.00 0.00 0.00 0.00 0.00 0.00 0.00 0.00 0.00 0.00 0.00 0.00 0.00 0.01 0.01 0.00 0.00 0.00 0.00 0.00 0.00 0.00 0.00 0.01 0.00 0.00 0.00 0.00 0.00 0.00 0.00 0.00 0.00 0.00 0.00 0.00 0.00 0.00 0.00 0.00 0.00 0.00 0.00 0.00
0.00 0.00 0.00 0.00 0.00 0.00 0.00 0.00 0.00 0.00 0.00 0.00 0.00 0.00 0.00 0.00 0.00 0.00 0.00 0.00 0.00 0.01 0.00 0.00 0.00 0.00 0.00 0.00 0.00 0.00 0.00 0.00 0.00 0.00 0.00 0.00 0.00 0.00 0.00 0.00 0.00 0.00 0.00 0.00 0.00
0.00 0.00 0.00 0.00 0.00 0.00 0.00 0.00 0.00 0.00 0.00 0.00 0.00 0.00 0.00 0.00 0.00 0.00 0.00 0.00 0.00 0.00 0.00 0.00 0.00 0.00 0.00 0.00 0.00 0.00 0.00 0.00 0.00 0.00 0.00 0.00 0.00 0.00 0.00 0.00 0.00 0.00 0.00 0.00 0.00
0.00 0.00 0.00 0.00 0.00 0.00 0.00 0.00 0.00 0.00 0.00 0.00 0.00 0.00 0.00 0.00 0.00 0.00 0.00 0.00 0.00 0.00 0.00 0.00 0.00 0.00 0.00 0.00 0.00 0.00 0.00 0.00 0.00 0.00 0.00 0.00 0.00 0.00 0.00 0.00 0.00 0.00 0.00 0.00 0.00
0.00 0.00 0.00 0.00 0.00 0.00 0.00 0.00 0.00 0.00 0.00 0.00 0.00 0.00 0.00 0.00 0.00 0.00 0.00 0.00 0.00 0.00 0.00 0.00 0.00 0.00 0.00 0.00 0.00 0.00 0.00 0.00 0.00 0.00 0.00 0.00 0.00 0.00 0.00 0.00 0.00 0.00 0.00 0.00 0.00
MSLP
1019.26 1019.01 1018.73 1018.42 1018.01 1017.73 1017.59 1017.33 1017.08 1016.68 1016.41 1016.20 1015.80 1015.58 1015.53 1015.81 1016.05 1015.90 1015.13 1013.94 1013.90 1013.46 1013.69 1013.45 1013.23 1013.24 1012.99 1013.62 1013.76 1014.01 1014.61 1014.68 1013.99 1013.58 1012.58 1012.13 1012.28 1012.32 1012.31 1012.89 1013.40 1013.73 1013.98 1014.20 1014.84
1019.28 1019.04 1018.68 1018.33 1017.98 1017.63 1017.41 1017.16 1016.90 1016.26 1016.10 1015.90 1015.81 1015.22 1015.23 1015.63 1016.09 1015.10 1013.14 1012.97 1013.13 1013.42 1013.61 1013.41 1013.20 1013.04 1013.18 1013.68 1013.97 1014.00 1014.31 1013.99 1013.14 1012.62 1012.24 1012.05 1012.17 1012.25 1012.59 1013.02 1013.42 1013.88 1014.24 1014.59 1015.17
1019.43 1019.14 1018.79 1018.32 1017.95 1017.60 1017.29 1016.83 1016.67 1016.31 1016.00 1015.62 1015.50 1015.00 1014.84 1015.42 1015.70 1012.75 1011.32 1011.87 1012.49 1013.08 1013.46 1013.45 1013.34 1013.47 1013.44 1013.68 1013.90 1013.79 1013.44 1013.28 1012.69 1012.30 1012.19 1012.11 1012.21 1012.30 1012.57 1013.20 1012.79 1013.01 1014.13 1014.85 1015.38
1019.44 1019.19 1018.79 1018.41 1018.05 1017.48 1017.04 1016.61 1016.29 1016.07 1015.86 1015.56 1014.96 1014.91 1014.61 1015.11 1014.56 1011.44 1010.97 1011.14 1012.05 1012.81 1013.50 1013.65 1013.56 1013.73 1013.71 1013.50 1013.49 1013.65 1012.86 1012.75 1012.57 1012.32 1012.29 1012.41 1012.27 1012.35 1012.40 1012.12 1011.99 1012.45 1013.28 1014.40 1015.08
1019.26 1019.07 1018.85 1018.55 1018.03 1017.32 1016.76 1016.31 1016.04 1015.63 1015.32 1014.77 1014.47 1013.96 1014.04 1014.40 1012.92 1011.76 1011.42 1011.05 1012.00 1012.78 1013.41 1013.63 1013.50 1013.55 1013.61 1013.37 1013.18 1013.17 1012.76 1012.72 1012.57 1012.58 1012.50 1012.56 1012.58 1012.70 1012.17 1012.14 1012.18 1012.66 1013.59 1014.11 1014.53
1019.17 1018.94 1018.77 1018.52 1017.98 1017.28 1016.63 1016.07 1015.81 1015.63 1015.27 1014.35 1013.95 1013.65 1013.62 1013.48 1011.88 1011.70 1011.82 1011.03 1011.83 1012.65 1013.18 1013.42 1013.19 1013.13 1013.19 1013.21 1012.93 1012.74 1012.87 1013.08 1012.95 1012.79 1012.66 1012.80 1012.90 1012.91 1012.22 1012.42 1012.85 1013.08 1013.44 1013.92 1014.19
1019.15 1018.85 1018.68 1018.34 1017.83 1017.23 1016.65 1016.04 1015.63 1015.37 1015.02 1014.58 1014.40 1014.48 1013.99 1012.59 1012.01 1011.89 1011.85 1011.34 1011.40 1012.11 1012.67 1013.16 1012.95 1012.97 1012.91 1013.21 1012.92 1012.94 1013.56 1013.77 1013.43 1013.19 1013.05 1012.98 1013.10 1012.99 1012.60 1012.82 1013.17 1013.47 1013.60 1013.92 1014.15
1019.04 1018.81 1018.59 1018.25 1017.71 1017.15 1016.49 1015.84 1015.24 1014.97 1014.89 1014.79 1014.39 1014.56 1013.87 1012.68 1012.74 1012.36 1011.90 1011.51 1011.47 1011.95 1012.26 1012.79 1012.84 1013.06 1013.09 1013.03 1013.24 1013.57 1013.89 1014.02 1013.53 1013.48 1013.32 1013.42 1013.06 1012.71 1012.83 1013.19 1013.58 1013.79 1013.97 1013.99 1014.08
1018.83 1018.67 1018.43 1018.09 1017.65 1017.00 1016.37 1015.64 1014.99 1014.46 1014.28 1014.32 1013.79 1013.24 1013.24 1012.84 1012.80 1012.09 1011.65 1011.51 1011.73 1012.28 1012.32 1012.74 1013.05 1013.30 1013.43 1013.50 1014.09 1014.00 1013.86 1014.06 1013.98 1013.72 1013.65 1013.83 1013.60 1012.96 1013.05 1013.47 1013.85 1014.02 1014.16 1014.26 1014.24
1018.71 1018.55 1018.22 1017.91 1017.56 1017.01 1016.19 1015.23 1014.29 1014.29 1013.87 1013.27 1014.09 1014.87 1013.83 1012.84 1012.27 1012.10 1011.74 1011.54 1011.90 1012.60 1012.75 1013.11 1013.76 1013.90 1014.00 1013.94 1013.53 1014.13 1014.33 1014.32 1014.22 1014.15 1014.23 1014.40 1013.94 1013.45 1013.53 1013.79 1014.00 1014.17 1014.30 1014.36 1014.19
1018.65 1018.40 1018.09 1017.79 1017.47 1016.97 1016.51 1015.67 1015.33 1015.22 1014.95 1014.74 1014.12 1014.09 1013.49 1013.16 1012.48 1012.29 1011.67 1011.61 1012.11 1012.96 1013.53 1013.61 1014.38 1014.33 1014.30 1014.18 1013.92 1013.92 1013.99 1014.14 1014.17 1014.15 1014.60 1014.71 1014.83 1014.21 1013.88 1014.09 1014.11 1014.23 1014.28 1014.12 1013.86
1018.64 1018.36 1018.07 1017.79 1017.46 1017.10 1017.13 1017.23 1017.10 1016.98 1015.67 1014.52 1013.72 1013.46 1013.38 1013.85 1012.41 1012.16 1012.35 1012.67 1012.85 1013.31 1013.86 1014.63 1014.32 1014.60 1014.64 1014.53 1014.42 1014.48 1014.22 1014.50 1014.34 1014.37 1015.01 1015.15 1015.10 1014.23 1014.01 1013.77 1013.60 1013.60 1013.72 1013.67 1013.59
1018.66 1018.31 1018.11 1017.73 1017.46 1017.50 1017.70 1017.68 1016.91 1016.61 1016.02 1014.25 1013.64 1013.17 1012.92 1014.02 1013.03 1012.20 1012.38 1012.17 1012.42 1013.32 1013.76 1014.01 1014.06 1014.16 1014.57 1014.77 1014.94 1015.07 1014.89 1014.88 1014.68 1014.60 1015.54 1015.81 1015.35 1014.52 1013.37 1013.25 1013.01 1012.78 1012.73 1012.79 1012.84
1018.62 1018.30 1018.09 1017.74 1018.03 1018.13 1017.81 1017.48 1016.85 1016.57 1016.12 1014.40 1013.43 1012.92 1013.09 1013.47 1013.20 1012.02 1011.91 1011.59 1012.43 1013.35 1013.99 1014.15 1013.92 1014.09 1014.28 1014.57 1014.78 1015.11 1015.16 1015.34 1015.49 1015.64 1016.70 1016.69 1015.69 1014.72 1013.35 1013.24 1012.83 1012.30 1012.35 1012.17 1012.11
1018.66 1018.44 1018.25 1018.02 1018.53 1018.52 1018.23 1017.38 1016.98 1016.84 1016.60 1014.67 1013.54 1012.87 1012.89 1013.27 1013.29 1012.21 1012.13 1011.78 1012.14 1013.04 1014.35 1013.95 1014.01 1014.08 1014.43 1014.30 1014.62 1015.16 1015.18 1015.95 1016.81 1017.28 1017.48 1017.17 1017.47 1013.87 1013.30 1012.75 1012.37 1011.74 1011.43 1011.23 1011.22
1018.70 1018.51 1018.49 1018.68 1018.70 1018.58 1018.06 1017.44 1017.48 1018.14 1017.09 1015.19 1014.13 1013.55 1013.63 1012.95 1012.87 1013.24 1012.73 1012.66 1012.76 1013.48 1013.89 1013.99 1013.86 1013.86 1013.90 1014.31 1014.55 1015.25 1015.93 1017.01 1018.04 1018.39 1018.57 1017.21 1017.11 1013.98 1012.75 1011.59 1011.36 1010.86 1010.86 1011.01 1011.11
1018.59 1018.43 1018.60 1018.93 1019.01 1018.44 1018.17 1018.26 1019.11 1019.41 1017.88 1016.88 1015.52 1014.42 1013.56 1012.80 1013.01 1013.17 1013.52 1013.17 1013.05 1013.48 1013.78 1014.15 1014.33 1013.88 1013.73 1014.35 1014.98 1015.22 1016.13 1018.13 1019.28 1019.67 1018.56 1017.70 1016.96 1013.09 1012.16 1011.08 1011.00 1010.84 1010.94 1010.87 1010.87
1018.42 1018.41 1018.89 1019.17 1018.95 1018.57 1018.72 1019.89 1020.85 1020.76 1019.14 1017.85 1016.77 1015.36 1014.67 1014.18 1014.05 1013.39 1013.24 1013.28 1013.09 1012.66 1013.16 1013.66 1014.37 1013.51 1013.25 1013.30 1013.84 1014.94 1015.37 1016.80 1018.47 1019.55 1019.08 1018.29 1016.11 1012.88 1011.76 1010.83 1010.64 1010.62 1010.73 1010.84 1010.89
1018.66 1019.23 1019.41 1019.32 1019.05 1018.89 1019.90 1021.64 1022.15 1021.34 1019.88 1018.50 1016.64 1016.19 1015.17 1014.29 1014.00 1013.66 1013.54 1013.22 1013.06 1013.24 1013.20 1013.34 1013.32 1012.78 1012.79 1012.94 1013.39 1014.76 1015.06 1015.58 1017.28 1019.86 1019.24 1017.45 1015.27 1013.17 1011.39 1010.63 1010.55 1010.44 1010.52 1010.74 1010.91
1019.70 1019.89 1019.91 1019.48 1019.37 1019.65 1021.15 1022.87 1022.37 1021.01 1019.94 1018.78 1018.10 1016.72 1015.89 1015.52 1014.71 1014.53 1014.06 1012.85 1012.78 1012.76 1013.14 1013.46 1013.68 1013.28 1013.19 1013.15 1013.52 1013.40 1014.02 1015.37 1016.41 1018.36 1018.52 1016.82 1015.67 1013.44 1011.85 1011.24 1010.93 1010.63 1010.50 1010.66 1010.89
1020.21 1020.68 1020.18 1019.69 1019.77 1021.24 1023.03 1023.59 1022.53 1021.01 1020.22 1019.57 1018.53 1017.50 1016.69 1016.32 1015.99 1014.87 1014.28 1013.74 1012.94 1012.79 1013.18 1013.72 1014.31 1014.29 1013.62 1013.06 1012.87 1013.63 1013.74 1014.25 1014.90 1016.20 1016.65 1016.61 1014.57 1012.65 1011.90 1011.75 1011.49 1011.13 1010.87 1010.92 1011.04
1020.58 1021.63 1020.60 1020.17 1021.38 1023.19 1023.92 1023.47 1022.50 1021.39 1020.33 1019.75 1018.91 1017.84 1016.97 1016.59 1016.06 1015.29 1014.24 1013.94 1013.35 1013.05 1013.41 1013.95 1014.25 1014.33 1013.58 1013.19 1012.78 1012.61 1012.78 1013.43 1014.06 1015.49 1015.87 1015.73 1013.81 1012.07 1012.06 1011.91 1011.64 1011.29 1011.24 1011.28 1011.33
1021.13 1021.50 1020.83 1020.66 1022.16 1023.79 1024.06 1023.74 1022.79 1021.64 1020.59 1019.95 1019.20 1018.24 1017.30 1016.82 1016.50 1015.89 1015.50 1014.80 1014.05 1013.88 1014.03 1013.89 1014.11 1014.33 1014.26 1014.06 1013.14 1012.56 1012.47 1012.82 1013.80 1014.53 1014.85 1015.29 1013.10 1012.06 1012.14 1011.91 1011.67 1011.59 1011.57 1011.72 1011.77
1021.86 1022.48 1022.04 1021.57 1022.30 1023.20 1024.38 1024.10 1022.95 1021.39 1020.52 1019.83 1019.42 1018.73 1017.90 1017.29 1016.82 1016.42 1015.68 1015.08 1014.84 1014.54 1014.42 1014.19 1013.91 1013.42 1012.98 1013.06 1012.82 1012.70 1012.23 1012.47 1013.25 1014.27 1013.76 1013.75 1012.91 1012.19 1011.99 1012.14 1012.10 1011.88 1011.82 1012.01 1012.13
1021.77 1022.61 1022.72 1022.77 1022.98 1023.22 1023.84 1023.71 1022.96 1022.00 1020.83 1019.94 1019.45 1019.12 1018.72 1017.92 1017.16 1016.80 1016.30 1015.76 1014.89 1014.72 1014.93 1014.82 1014.01 1013.77 1013.25 1013.38 1013.15 1012.54 1012.60 1012.67 1012.86 1013.17 1013.74 1011.97 1012.97 1012.77 1012.08 1012.31 1012.20 1011.92 1011.97 1012.10 1012.20
1021.36 1022.12 1022.44 1022.70 1022.92 1023.21 1023.28 1023.08 1022.45 1021.44 1020.98 1020.02 1019.46 1018.88 1018.90 1018.52 1017.77 1017.31 1016.77 1016.45 1015.97 1015.31 1015.14 1014.96 1014.57 1014.38 1013.66 1013.74 1013.40 1012.94 1012.73 1012.73 1013.24 1013.30 1013.32 1012.62 1012.36 1012.10 1012.00 1011.97 1012.03 1012.04 1012.22 1012.19 1012.25
1020.69 1021.13 1021.48 1022.06 1022.46 1022.77 1022.28 1021.56 1021.22 1020.82 1019.87 1019.47 1019.23 1018.91 1018.33 1017.57 1017.23 1017.03 1016.89 1016.80 1016.45 1015.92 1015.50 1015.44 1015.21 1015.42 1015.46 1014.57 1013.98 1013.45 1012.50 1012.56 1012.35 1012.35 1011.85 1012.12 1010.29 1011.51 1011.69 1011.79 1011.60 1011.71 1012.03 1012.06 1012.10
Thickness
5503 5498 5492 5486 5480 5475 5475 5479 5486 5496 5509 5521 5533 5542 5551 5556 5563 5576 5593 5616 5623 5635 5640 5648 5655 5659 5668 5664 5668 5666 5648 5649 5668 5670 5690 5701 5705 5711 5720 5712 5715 5717 5715 5721 5719
5486 5477 5466 5455 5445 5439 5438 5444 5454 5471 5487 5502 5513 5527 5538 5542 5549 5567 5603 5610 5618 5625 5631 5637 5642 5650 5651 5655 5656 5653 5642 5657 5677 5683 5691 5697 5701 5704 5709 5707 5711 5713 5713 5715 5714
5463 5449 5433 5423 5418 5416 5420 5425 5432 5447 5466 5482 5501 5515 5526 5531 5535 5581 5602 5607 5612 5617 5623 5630 5634 5633 5641 5646 5648 5647 5648 5666 5679 5685 5689 5695 5696 5702 5701 5698 5713 5714 5709 5709 5709
5441 5422 5412 5409 5407 5409 5414 5418 5424 5435 5452 5472 5498 5507 5516 5519 5526 5576 5590 5600 5604 5607 5612 5616 5623 5623 5627 5634 5644 5643 5658 5668 5675 5679 5682 5685 5692 5696 5701 5713 5720 5722 5718 5712 5709
5422 5408 5404 5402 5403 5407 5412 5416 5421 5430 5445 5468 5490 5502 5510 5509 5537 5560 5571 5585 5588 5594 5600 5607 5614 5617 5619 5628 5634 5640 5655 5660 5666 5670 5674 5680 5683 5687 5698 5711 5714 5715 5714 5711 5711
5407 5402 5400 5398 5401 5405 5410 5415 5420 5426 5440 5466 5481 5490 5500 5505 5535 5542 5555 5573 5575 5582 5588 5597 5607 5616 5618 5624 5632 5638 5642 5649 5654 5660 5666 5669 5675 5682 5700 5700 5701 5707 5711 5710 5711
5400 5400 5398 5398 5400 5403 5407 5412 5418 5423 5435 5454 5469 5479 5481 5509 5520 5530 5541 5557 5570 5572 5578 5587 5601 5607 5614 5616 5629 5631 5629 5631 5640 5650 5656 5662 5660 5671 5691 5694 5693 5697 5704 5706 5708
5397 5397 5396 5397 5399 5402 5406 5411 5417 5422 5433 5445 5458 5468 5481 5504 5508 5517 5531 5545 5558 5564 5571 5579 5590 5596 5603 5613 5615 5615 5622 5614 5634 5636 5649 5653 5650 5673 5681 5684 5687 5689 5693 5699 5703
5397 5395 5395 5396 5398 5401 5404 5410 5415 5423 5432 5437 5453 5469 5475 5490 5502 5514 5525 5536 5544 5551 5560 5567 5576 5581 5591 5590 5592 5601 5603 5607 5626 5629 5636 5639 5646 5666 5672 5674 5679 5682 5685 5690 5694
5396 5394 5395 5395 5396 5398 5402 5411 5419 5420 5430 5444 5446 5452 5472 5494 5504 5509 5519 5530 5534 5538 5547 5551 5552 5561 5568 5579 5587 5586 5593 5601 5612 5625 5624 5626 5637 5655 5661 5664 5669 5673 5676 5681 5689
5395 5395 5394 5394 5395 5397 5399 5403 5405 5410 5416 5427 5443 5454 5469 5483 5496 5505 5516 5521 5524 5525 5529 5540 5536 5545 5562 5578 5587 5592 5598 5602 5608 5618 5616 5616 5619 5638 5650 5655 5661 5665 5668 5674 5683
5394 5394 5393 5393 5394 5395 5392 5386 5388 5394 5413 5428 5445 5460 5470 5472 5493 5502 5506 5508 5512 5516 5517 5522 5526 5544 5556 5565 5574 5577 5590 5592 5604 5609 5606 5608 5609 5629 5639 5648 5660 5666 5668 5673 5680
5392 5392 5392 5393 5393 5392 5386 5383 5387 5395 5406 5429 5441 5460 5471 5465 5481 5493 5499 5507 5511 5508 5514 5522 5540 5541 5547 5550 5557 5561 5570 5579 5590 5597 5595 5597 5595 5617 5643 5643 5653 5664 5674 5678 5682
5390 5391 5391 5393 5388 5385 5385 5384 5387 5394 5400 5424 5438 5453 5457 5464 5474 5489 5499 5507 5505 5509 5508 5514 5527 5532 5539 5545 5552 5554 5563 5568 5571 5578 5573 5579 5579 5601 5629 5635 5644 5655 5662 5673 5678
5389 5389 5390 5390 5384 5381 5383 5386 5388 5390 5357 5427 5441 5448 5456 5464 5468 5488 5486 5502 5504 5502 5497 5510 5514 5522 5524 5537 5545 5545 5555 5552 5550 5551 5557 5568 5557 5595 5620 5634 5644 5652 5659 5668 5673
5387 5387 5387 5386 5385 5383 5385 5388 5386 5361 5366 5417 5437 5443 5451 5466 5470 5477 5485 5489 5498 5496 5501 5502 5513 5518 5525 5528 5535 5534 5536 5532 5524 5533 5522 5564 5564 5587 5617 5638 5647 5654 5657 5657 5661
5387 5387 5385 5383 5381 5385 5385 5384 5348 5329 5392 5394 5419 5429 5445 5467 5466 5472 5472 5479 5485 5494 5494 5489 5493 5513 5520 5517 5519 5525 5525 5488 5487 5468 5522 5528 5558 5611 5616 5628 5636 5643 5643 5648 5653
5388 5386 5383 5380 5380 5383 5381 5353 5320 5317 5361 5395 5405 5422 5430 5447 5451 5466 5467 5471 5481 5495 5493 5498 5498 5504 5517 5523 5522 5512 5528 5496 5479 5483 5517 5513 5555 5591 5603 5618 5624 5632 5632 5637 5644
5386 5380 5377 5377 5377 5379 5362 5312 5324 5327 5377 5389 5410 5409 5434 5442 5452 5453 5459 5472 5476 5484 5494 5492 5503 5513 5515 5521 5522 5507 5510 5524 5491 5416 5470 5516 5545 5577 5597 5609 5617 5622 5626 5625 5630
5378 5370 5369 5372 5371 5371 5342 5342 5327 5360 5376 5390 5376 5411 5398 5422 5437 5442 5441 5473 5485 5483 5483 5488 5494 5499 5507 5513 5510 5513 5519 5509 5488 5443 5458 5507 5523 5560 5587 5598 5606 5613 5616 5615 5616
5371 5355 5364 5367 5364 5343 5313 5304 5327 5360 5368 5376 5389 5400 5412 5412 5412 5432 5440 5452 5469 5481 5478 5475 5472 5472 5493 5497 5508 5506 5504 5509 5513 5492 5495 5488 5521 5541 5573 5581 5585 5595 5600 5603 5607
5364 5339 5359 5360 5329 5312 5314 5306 5354 5355 5364 5367 5380 5394 5407 5412 5413 5421 5441 5450 5456 5464 5465 5466 5462 5457 5482 5487 5495 5514 5515 5515 5511 5497 5491 5503 5517 5557 5550 5554 5558 5571 5581 5591 5594
5360 5345 5355 5355 5309 5288 5304 5311 5337 5347 5356 5365 5367 5383 5398 5407 5407 5420 5421 5421 5439 5447 5448 5457 5460 5451 5462 5465 5481 5499 5503 5513 5500 5493 5489 5481 5519 5543 5540 5543 5553 5565 5566 5567 5577
5348 5334 5337 5350 5343 5334 5323 5302 5324 5352 5364 5369 5371 5373 5386 5396 5399 5399 5415 5423 5425 5429 5436 5448 5454 5470 5484 5480 5474 5480 5503 5507 5504 5483 5509 5503 5531 5536 5547 5545 5540 5541 5548 5552 5557
5348 5330 5326 5311 5334 5341 5313 5307 5314 5329 5346 5358 5361 5367 5372 5380 5392 5397 5394 5412 5426 5432 5426 5431 5454 5456 5469 5467 5470 5475 5488 5494 5494 5498 5487 5533 5507 5511 5526 5529 5529 5536 5535 5543 5546
5353 5347 5342 5338 5317 5326 5332 5309 5325 5338 5346 5341 5352 5364 5365 5372 5385 5384 5401 5398 5399 5419 5424 5427 5439 5436 5452 5452 5458 5465 5469 5476 5475 5470 5471 5488 5491 5510 5515 5514 5519 5520 5527 5531 5534
5354 5350 5346 5333 5336 5331 5322 5329 5336 5345 5353 5355 5358 5357 5367 5371 5381 5384 5391 5395 5401 5405 5411 5415 5410 5420 5424 5431 5442 5448 5459 5468 5478 5476 5486 5475 5523 5503 5502 5506 5512 5513 5509 5516 5519